EUTELSAT 65 WEST A

Last updated on Oct. 29, 2020, 5:52 a.m. UTC

1 41382U 16014A   20302.48360877 -.00000280  00000-0  00000-0 0  9991
2 41382   0.0560   0.4246 0002129 204.9865 300.7777  1.00268750 16912
UTC
Height (km)
Latitude
Longitude
Inclination
Orbital Period
UTC large
Height (km)
Speed (km/s)
/
Latitude / Longitude
Inclination (degrees)
Orbital Period (minutes)
Azimuth
Elevation
Range (km)
Doppler Factor
iOS Compass Heading
iOS Angle

Next 30 passes for location: Hong Kong

Rise time Rise Azimuth (degrees) Set time Set Azimuth (degrees) Duration Max altitude (degrees)

No matching passes for this satellites